Wind_Speed
5 5 10 13 14 11 8 11 14 16 8 8 20 22 21 15 16 17 17 18 18 23 24 32 9 8 8 8 12 13 16 15 18 21 17 11 10 9 9 9 9 8 8 10
5 11 14 11 9 14 15 15 18 15 4 9 7 18 18 9 12 16 16 20 15 18 14 15 7 14 16 15 15 13 14 16 18 22 20 15 14 11 11 8 6 5 5 6
9 2 16 12 11 12 15 14 14 12 7 4 3 5 8 7 12 10 11 18 15 16 16 13 11 12 13 13 16 19 19 19 19 20 19 18 13 12 8 7 6 7 6 6
10 12 11 10 12 12 15 14 17 14 5 7 3 3 3 3 9 12 11 11 18 15 12 9 11 13 13 13 21 25 26 24 21 17 14 12 8 6 4 3 4 5 9 11
9 10 14 13 11 11 8 7 15 8 7 4 4 4 3 2 6 8 11 11 9 9 10 9 10 14 16 22 22 20 18 16 12 8 7 5 3 1 3 5 9 12 14 14
13 3 5 5 5 10 5 3 4 3 3 7 1 3 3 4 3 2 3 5 8 11 13 13 16 17 16 14 13 14 12 11 7 5 3 1 2 4 5 6 10 12 15 17
9 13 9 8 9 6 8 7 6 7 6 7 1 4 0 3 1 4 6 7 10 12 15 14 13 12 12 11 10 10 9 10 8 6 5 5 3 4 6 8 8 13 14 16
11 9 13 9 13 7 9 11 7 10 8 6 3 5 3 2 5 6 6 10 12 12 11 11 9 10 10 10 10 11 10 9 8 7 6 5 5 6 8 9 12 15 17 18
9 9 3 5 4 8 6 6 1 5 2 3 2 2 5 1 5 8 12 12 11 10 8 8 8 11 12 13 12 10 8 7 6 6 6 8 9 11 13 15 16 18 19 21
5 4 4 5 5 5 4 10 4 2 6 7 4 3 5 5 9 13 14 13 10 8 8 9 10 12 11 10 8 8 7 6 5 7 8 10 12 13 15 17 19 20 21 21
13 3 3 2 4 7 5 4 4 4 1 4 6 4 1 5 12 15 12 9 9 9 10 10 10 10 8 6 6 6 7 9 11 12 13 14 15 16 16 18 19 19 19 19
3 3 5 1 2 2 2 3 5 6 6 1 1 3 5 5 12 12 9 8 8 10 9 8 8 6 5 5 6 9 11 12 13 14 15 16 17 17 17 18 18 17 18 18
6 1 1 3 3 1 4 4 4 5 2 8 8 4 3 6 8 6 11 10 10 11 9 7 4 3 3 4 8 10 12 13 14 16 17 18 18 17 18 19 18 18 19 19
9 2 5 7 3 2 4 7 7 8 5 8 9 7 5 5 7 8 8 10 10 8 6 4 2 3 4 8 11 13 14 15 17 17 17 19 19 18 19 19 20 20 20 20
6 9 14 9 11 3 3 7 7 7 7 7 6 8 7 7 9 10 9 9 9 7 4 2 4 5 9 12 13 15 16 17 17 19 20 20 19 19 20 20 21 21 20 20
1 4 4 4 2 1 4 6 8 10 9 9 9 12 6 3 6 11 11 10 9 4 3 5 6 9 12 15 17 18 19 20 19 20 21 20 19 20 20 21 22 22 22 23
2 5 3 3 2 0 8 13 15 13 11 12 14 13 7 6 9 10 9 6 5 5 6 8 10 12 15 16 18 21 22 22 22 22 21 20 20 20 21 22 22 23 24 26
5 5 2 3 4 4 3 5 6 6 8 10 11 11 8 5 8 8 7 6 6 6 7 9 12 15 16 18 19 20 20 21 21 22 21 20 20 21 21 22 22 24 25 24
3 4 4 3 5 7 1 2 2 4 3 3 6 5 9 13 13 8 7 7 6 7 8 10 13 15 18 18 19 19 21 20 21 21 21 20 20 21 22 23 25 26 25 26
4 5 3 3 3 3 3 3 2 2 3 5 9 11 14 10 6 4 4 4 5 6 7 10 13 15 15 17 18 19 20 20 20 20 22 22 21 20 23 24 27 25 24 26
4 3 5 3 3 3 2 3 3 4 3 8 7 9 6 4 4 7 4 4 5 7 10 12 13 14 15 17 18 18 19 19 21 22 23 21 20 22 23 25 24 25 26 26
6 6 4 4 4 4 1 2 3 3 6 9 10 8 10 10 7 6 5 6 8 10 13 13 14 15 16 17 18 19 20 21 22 22 23 22 22 22 23 23 27 25 26 26
4 3 5 5 2 2 2 2 3 5 10 10 12 10 9 6 5 5 5 6 8 10 12 14 15 17 17 16 18 21 22 23 22 22 22 22 21 22 21 21 24 25 24 20
2 3 2 4 3 1 1 4 5 9 12 12 11 9 8 7 5 4 3 5 6 10 12 14 16 17 18 19 21 20 22 22 22 22 22 21 21 22 22 21 22 23 22 17
1 8 4 1 4 2 4 5 10 13 12 13 11 11 9 8 6 4 5 6 8 11 13 13 16 17 20 23 22 22 22 23 22 21 21 20 19 20 23 23 23 24 25 19
4 4 4 1 5 3 3 11 14 13 13 12 12 11 8 7 6 5 6 8 9 10 13 14 17 18 24 25 22 22 23 22 22 21 19 19 20 20 21 22 26 26 24 21
Wind_Direction
187 189 199 198 203 234 266 285 278 272 262 208 222 228 237 250 201 206 223 221 212 220 220 238 209 228 222 213 203 196 184 189 186 183 176 175 186 213 227 233 233 229 236 241
149 225 217 229 220 226 244 264 267 284 262 212 225 230 235 217 237 220 212 218 218 219 206 228 208 189 205 197 180 173 174 173 176 184 184 188 160 146 144 144 148 168 192 212
201 174 215 207 224 220 236 241 258 266 317 194 204 240 236 233 230 242 224 220 221 220 210 224 204 188 184 175 158 150 144 145 148 149 144 144 136 142 160 177 193 206 220 240
220 228 212 213 238 228 250 227 246 263 265 234 260 257 186 276 222 194 188 199 211 217 219 209 182 174 145 151 141 134 133 131 132 140 150 150 148 158 181 227 256 268 275 276
201 189 210 223 223 185 249 240 217 231 224 280 191 235 118 219 204 204 174 188 189 178 183 183 164 134 135 134 135 132 133 135 132 122 118 107 78 20 278 275 264 259 264 269
226 187 205 216 236 200 147 145 103 119 168 235 184 256 149 157 167 138 186 158 168 160 142 138 132 131 121 117 118 122 120 105 107 105 97 110 300 299 303 291 292 292 289 284
210 235 250 231 250 195 195 194 193 209 208 242 143 203 93 161 223 263 239 158 143 138 131 132 128 121 113 88 85 98 97 87 89 86 76 66 36 336 327 316 301 296 293 292
211 221 215 210 218 218 191 207 220 216 213 215 172 205 161 303 284 248 165 144 130 124 120 121 118 115 111 101 101 106 102 93 80 75 56 22 346 327 312 294 290 287 284 284
186 219 161 198 174 186 166 205 157 112 79 223 181 225 247 90 66 125 129 133 134 121 106 99 96 102 110 110 105 103 97 81 53 25 359 334 320 306 297 295 290 288 287 288
183 178 189 147 145 68 217 139 163 167 206 235 197 242 240 178 146 150 152 147 140 115 104 102 105 105 101 96 89 76 62 40 2 336 324 312 308 304 299 300 297 294 291 289
209 223 176 228 204 175 150 167 77 110 118 237 244 219 196 218 173 160 155 148 149 146 136 127 120 112 99 85 64 39 4 346 334 328 320 314 310 308 303 295 294 291 288 289
162 164 223 238 355 335 108 154 182 225 200 165 305 221 5 199 166 161 151 138 127 126 124 120 114 95 65 38 11 349 339 331 326 321 316 310 308 307 303 299 294 291 291 292
155 18 95 204 195 252 219 146 98 89 95 215 229 231 60 107 127 141 140 137 133 132 130 125 117 85 36 358 338 329 324 319 316 315 313 310 308 305 304 303 301 296 294 291
78 90 177 199 356 271 202 193 182 197 227 242 235 238 158 156 154 154 142 143 143 139 130 111 62 7 346 336 332 327 324 321 319 317 314 312 310 308 308 307 303 296 292 288
153 176 195 196 200 188 160 178 173 200 223 226 255 219 224 204 193 180 159 163 150 142 129 62 1 351 334 331 327 322 318 321 321 317 314 311 309 306 306 304 303 296 287 284
180 120 153 131 109 207 224 204 212 225 234 248 245 252 260 157 153 156 164 172 149 123 49 2 352 338 333 331 327 324 321 320 317 311 307 304 302 304 301 300 297 289 286 287
88 131 134 201 51 297 264 244 235 234 231 243 251 258 176 164 178 165 151 139 101 54 4 350 339 336 332 329 325 319 318 316 311 308 305 303 302 301 301 297 292 292 296 295
123 107 84 125 139 222 53 305 279 261 255 241 254 251 233 211 130 110 93 83 50 16 352 339 336 332 331 325 319 313 312 310 308 305 303 304 302 302 300 297 297 298 292 292
42 112 118 175 200 322 122 83 133 185 182 267 258 159 125 129 125 97 74 57 30 3 345 332 327 325 321 317 314 309 307 307 306 304 303 304 304 301 300 302 296 292 298 302
75 93 101 159 194 216 108 39 345 216 233 116 138 131 130 150 179 115 117 53 11 349 335 330 325 318 314 316 315 309 307 306 305 307 305 303 300 298 298 293 294 301 300 301
152 156 165 152 227 265 276 297 290 209 68 134 126 117 105 90 57 106 82 44 8 352 346 338 329 320 319 321 320 314 311 309 310 307 303 302 298 295 292 293 301 302 296 298
156 161 167 162 196 254 84 222 235 77 107 122 110 92 92 102 94 61 40 20 5 353 348 346 336 330 330 330 325 319 316 315 311 308 306 304 300 296 296 301 301 302 300 297
150 180 172 184 172 16 328 354 91 119 123 105 101 96 103 96 70 43 23 8 356 346 342 344 340 334 334 330 334 325 321 319 315 310 306 303 300 299 302 304 303 305 300 288
120 146 114 162 113 341 352 90 111 124 116 116 105 105 106 106 86 71 19 1 353 352 350 349 345 339 331 338 336 326 321 321 317 310 309 307 303 307 308 310 309 301 296 290
351 158 162 220 218 225 190 131 121 111 106 102 93 95 99 103 88 43 5 349 344 345 345 346 350 340 338 336 334 330 329 326 319 314 310 310 310 310 311 311 304 298 295 290
205 163 183 134 163 172 84 148 138 128 122 115 114 106 92 83 65 22 10 3 356 352 351 352 351 347 342 334 331 333 333 330 324 319 320 318 315 312 308 306 309 313 306 310
Height
760 760 759 754 756 754 760 761 759 741 737 744 738 732 727 726 729 729 727 733 734 732 726 728 739 745 749 749 752 754 754 757 760 766 771 774 776 778 782 783 784 784 785 788
762 758 749 748 753 759 760 761 751 740 733 742 736 731 719 727 726 719 725 728 726 725 730 734 736 743 745 748 751 753 756 758 761 765 768 772 772 778 780 781 783 783 784 786
750 743 739 752 751 756 753 753 747 746 735 732 737 734 730 720 724 720 724 720 723 721 728 733 733 738 742 747 749 751 756 760 763 767 771 774 775 777 780 779 781 782 783 783
743 735 742 745 746 743 747 738 739 739 743 738 737 738 728 729 722 721 720 721 719 722 727 732 734 741 743 749 750 753 757 760 763 767 770 770 771 774 776 777 778 778 780 780
735 735 738 739 735 734 736 730 731 733 736 740 735 733 725 729 728 725 720 722 723 725 728 733 735 741 746 748 752 754 758 759 762 766 767 768 770 771 772 774 775 776 777 775
726 724 726 727 723 727 728 734 737 740 738 746 737 735 726 724 721 720 726 727 729 730 730 736 740 742 746 749 754 754 758 758 762 764 767 770 773 775 776 777 777 776 775 773
728 726 720 720 727 726 729 733 740 747 747 742 743 737 722 725 724 723 720 726 728 729 728 733 740 745 749 752 756 757 761 762 765 768 770 772 773 775 774 774 774 773 771 769
733 738 721 712 717 720 726 723 730 752 748 737 745 737 722 724 724 723 723 727 730 735 738 741 747 750 754 758 760 763 766 767 770 769 771 772 773 774 772 772 770 768 766 763
725 725 711 709 708 711 726 729 724 739 752 741 734 732 720 723 726 726 729 730 735 738 742 747 753 756 760 763 766 768 770 771 770 770 769 769 770 771 769 767 765 762 758 756
710 723 712 711 708 713 712 717 732 731 748 749 738 740 722 724 730 729 730 732 737 742 746 752 756 760 763 766 768 769 770 771 771 772 770 768 767 765 763 759 756 754 752 750
701 716 720 715 713 713 720 719 729 729 738 740 741 734 721 719 722 726 731 735 739 743 748 753 758 762 765 767 767 768 768 768 767 766 765 763 761 759 756 755 752 749 747 744
711 715 720 721 720 717 714 718 717 726 738 739 739 732 726 724 724 727 731 738 744 748 753 756 758 761 763 765 765 765 765 765 764 762 759 757 755 753 750 748 746 743 740 737
706 727 736 726 723 721 717 720 728 731 733 734 740 734 730 729 731 734 737 745 749 753 755 759 761 763 765 766 766 765 765 763 761 758 755 752 750 748 745 742 739 736 734 732
706 732 729 737 731 722 724 721 724 722 732 726 731 725 732 733 732 737 742 747 750 752 757 759 761 762 764 764 763 762 760 758 755 752 750 747 744 741 739 736 734 732 730 728
709 721 726 726 724 723 720 721 723 724 724 731 724 732 725 728 731 735 742 749 750 754 757 760 760 761 762 762 761 759 757 754 750 747 744 742 740 737 735 732 730 728 726 723
715 721 720 725 723 724 726 724 724 726 726 729 729 729 723 732 733 742 746 750 750 755 758 759 760 761 760 759 757 754 752 750 747 744 741 739 737 734 731 728 726 723 719 716
714 717 721 724 733 729 728 719 718 718 720 721 725 719 728 735 735 741 747 750 752 754 758 759 760 760 759 757 755 752 749 747 743 739 736 734 732 729 726 724 720 716 712 708
717 718 724 731 730 737 718 719 719 719 718 718 718 717 720 724 737 745 749 751 754 758 759 761 761 760 759 756 754 751 748 745 741 736 733 731 728 724 721 718 714 709 706 701
718 722 733 731 731 725 717 721 721 717 720 721 721 725 728 735 739 750 755 758 760 761 762 763 762 761 758 756 753 749 745 741 737 733 729 727 724 720 716 711 707 703 697 691
723 722 726 734 735 731 722 721 719 717 719 725 725 728 731 732 731 743 756 760 762 764 764 763 762 761 757 754 750 745 741 737 732 729 726 723 720 716 711 707 700 694 689 684
728 729 732 738 734 724 721 722 719 726 728 726 728 731 735 736 749 756 759 761 763 763 762 761 760 757 754 750 746 741 737 733 729 725 721 718 714 710 705 699 693 688 682 676
723 731 732 738 737 737 723 721 722 725 729 729 734 741 746 750 754 757 760 761 761 761 759 758 756 753 750 747 742 737 732 728 724 720 716 712 708 704 699 693 686 681 675 670
720 718 724 723 725 727 727 725 727 727 729 737 740 746 749 752 756 760 761 761 761 760 758 756 754 750 748 744 739 733 729 724 720 716 711 707 703 698 693 688 681 675 671 666
718 721 721 723 727 727 727 729 728 729 734 739 744 750 753 757 760 762 763 763 762 760 758 756 753 749 745 740 736 731 726 722 717 712 707 703 698 692 687 682 677 672 667 662
721 723 723 722 724 726 727 729 731 737 743 748 751 753 758 760 763 764 764 763 762 760 758 755 752 748 743 738 733 729 724 719 714 708 704 699 694 689 682 677 673 668 662 659
717 717 717 719 718 718 722 729 734 738 745 749 752 758 762 763 764 766 765 764 762 760 757 753 751 747 742 737 732 727 723 717 711 705 699 695 690 685 680 674 666 662 657 654